Wetbulb
71.71 70.90 68.78 68.64 67.42 67.15 67.13 68.59 68.48 68.68 67.90 68.03 68.42 68.03 67.71 65.43 65.26 65.14 63.75 62.65 62.27 60.91
71.29 69.23 68.39 67.76 67.83 67.07 68.03 68.94 68.75 67.90 64.31 65.63 66.12 65.93 66.13 64.64 63.23 63.29 62.68 61.44 60.74 60.00
69.25 68.32 67.92 66.37 64.13 63.66 64.93 67.36 67.43 66.08 65.29 66.17 66.58 65.87 64.51 63.17 63.69 61.35 60.90 57.63 56.20 56.22
66.02 64.50 64.28 63.25 63.53 63.82 66.22 67.31 66.66 66.34 66.41 66.02 64.63 63.10 61.90 60.13 59.57 56.63 55.05 55.16 55.07 54.99
64.18 64.09 63.39 62.96 64.37 67.52 66.28 66.82 66.26 66.44 65.27 62.87 62.51 61.81 57.18 56.21 56.61 55.47 55.01 55.70 54.82 54.95
63.59 63.83 64.68 64.86 66.58 66.37 65.64 64.99 64.80 64.04 63.79 63.39 60.79 57.55 56.55 56.14 55.71 55.51 56.21 55.22 54.37 54.35
64.63 64.11 64.54 64.90 65.47 65.10 64.83 63.48 61.64 60.73 58.89 58.36 56.41 58.44 57.26 56.68 55.63 55.73 56.16 56.52 55.56 55.02
62.67 63.43 63.53 62.82 62.78 61.91 60.32 58.91 59.23 58.26 58.42 55.32 53.45 53.64 52.63 54.03 54.22 54.44 54.23 54.52 55.58 54.10
60.71 60.41 60.52 60.30 58.80 58.79 57.93 57.90 57.30 57.22 57.21 52.44 52.77 49.91 50.91 52.49 51.77 51.87 51.12 50.57 52.81 53.97
58.55 58.32 58.69 59.28 58.93 58.62 58.42 58.79 57.43 58.00 55.59 50.50 48.71 48.43 49.00 50.64 50.63 50.33 50.67 51.41 51.73 52.01
57.13 57.29 57.92 58.26 58.54 58.67 58.72 56.84 55.62 55.43 53.58 49.07 49.27 47.88 47.61 49.90 50.02 49.63 50.87 50.91 50.33 48.98
57.26 57.52 58.92 58.54 57.38 57.72 57.04 55.41 55.23 54.92 53.64 49.36 48.26 47.04 46.66 47.76 48.92 47.88 45.72 47.87 48.55 49.37
58.78 58.23 57.06 57.16 56.36 55.18 54.37 53.96 53.68 53.27 52.33 50.12 48.62 46.28 46.21 45.58 46.54 42.11 43.17 44.00 45.81 49.60
57.69 57.19 56.67 55.79 55.01 53.83 53.03 52.45 52.31 52.22 52.35 50.87 49.96 46.42 46.25 45.56 43.86 42.69 42.90 42.25 42.61 44.82
MSLP
1009.11 1009.70 1010.61 1011.40 1012.43 1013.06 1013.47 1013.21 1012.60 1013.19 1013.80 1014.20 1014.38 1014.53 1014.49 1015.00 1014.84 1015.29 1015.68 1015.85 1016.13 1016.48
1009.03 1010.35 1011.42 1012.42 1012.25 1012.97 1013.82 1013.04 1012.28 1012.84 1013.12 1013.23 1013.84 1014.77 1014.83 1015.11 1015.58 1015.51 1015.73 1015.70 1015.88 1016.20
1009.17 1009.88 1010.58 1011.99 1012.27 1013.45 1013.62 1012.46 1012.27 1012.78 1013.04 1013.21 1013.51 1014.04 1014.72 1015.21 1015.30 1015.51 1015.97 1015.97 1015.97 1016.43
1009.68 1010.20 1011.43 1012.64 1012.55 1012.76 1012.88 1012.36 1012.62 1012.58 1012.93 1013.65 1014.08 1014.51 1014.83 1015.21 1015.63 1016.11 1016.15 1015.88 1016.07 1016.48
1010.95 1011.07 1012.04 1012.77 1012.66 1012.65 1012.72 1012.68 1013.31 1013.72 1014.04 1013.87 1014.55 1014.97 1015.19 1015.57 1015.86 1016.01 1016.20 1016.40 1016.59 1016.85
1011.50 1011.08 1011.89 1012.34 1012.48 1012.76 1013.21 1013.50 1013.91 1014.99 1015.35 1014.69 1014.91 1015.21 1015.33 1015.57 1015.76 1016.00 1016.30 1016.54 1016.65 1016.81
1010.81 1011.41 1012.29 1013.00 1013.02 1013.22 1013.77 1014.75 1014.39 1014.94 1014.91 1014.82 1015.14 1015.51 1015.81 1015.81 1016.03 1016.24 1016.33 1016.49 1016.62 1016.65
1012.67 1012.28 1013.10 1013.85 1013.77 1013.56 1013.81 1014.41 1014.58 1014.60 1015.20 1015.72 1016.06 1016.54 1016.51 1016.55 1016.52 1016.59 1016.68 1016.64 1016.53 1016.46
1013.25 1013.62 1014.24 1014.66 1014.84 1014.86 1014.68 1014.46 1014.67 1015.19 1015.79 1016.44 1017.07 1017.14 1017.09 1017.11 1017.08 1017.00 1016.99 1016.82 1016.46 1016.33
1014.33 1014.10 1014.49 1014.15 1014.96 1015.24 1015.29 1015.25 1015.37 1015.77 1016.23 1017.19 1017.57 1017.52 1017.36 1017.28 1017.27 1017.21 1016.97 1016.76 1016.61 1016.39
1014.32 1014.62 1014.97 1014.93 1015.14 1015.27 1015.41 1015.71 1015.98 1016.21 1016.79 1017.35 1017.85 1017.84 1017.60 1017.34 1017.18 1017.17 1017.13 1017.11 1016.98 1016.75
1014.95 1015.29 1015.40 1015.39 1015.58 1015.61 1015.83 1016.24 1016.54 1016.78 1017.20 1017.64 1018.15 1018.01 1017.78 1017.67 1017.65 1017.77 1017.64 1017.41 1017.14 1016.76
1014.86 1015.34 1015.73 1016.00 1016.17 1016.26 1016.46 1016.77 1017.09 1017.45 1017.65 1017.88 1018.23 1018.27 1018.25 1018.14 1018.19 1018.46 1018.22 1017.77 1017.52 1017.25
1015.40 1015.85 1015.96 1016.21 1016.32 1016.79 1017.23 1017.45 1017.77 1017.91 1018.13 1018.31 1018.45 1018.69 1018.66 1018.70 1018.57 1018.67 1018.68 1018.29 1017.84 1017.39
Wind_Speed
12 5 6 6 4 2 1 3 4 4 5 4 4 4 1 1 3 5 3 4 3 1
7 10 10 5 4 3 5 2 1 6 6 4 3 11 4 2 3 4 3 3 3 2
13 11 9 5 6 2 7 4 4 1 4 5 4 5 5 4 4 4 3 3 6 3
9 10 9 3 2 3 6 3 4 6 8 6 4 6 5 5 6 6 5 5 6 3
9 6 4 4 4 3 7 10 9 10 7 5 5 5 6 7 6 7 7 6 7 5
3 4 2 2 5 10 12 12 11 4 3 6 5 5 6 6 6 6 6 4 4 2
7 6 8 9 11 11 9 6 5 5 3 8 8 7 6 7 6 5 5 3 2 3
9 13 12 10 8 8 8 7 4 8 8 7 9 7 7 7 7 6 6 6 6 4
7 12 10 9 4 6 6 8 7 7 8 8 7 11 13 7 6 6 5 5 6 6
5 8 7 9 5 5 5 4 5 7 8 9 6 9 10 8 5 5 5 6 5 5
5 6 5 6 6 4 2 4 5 7 10 8 5 7 8 8 6 6 7 6 5 4
5 5 5 5 5 4 5 6 7 6 8 8 5 7 10 8 7 6 7 7 3 4
5 6 5 6 6 6 6 6 6 7 7 7 5 7 8 7 4 6 5 7 6 3
8 7 7 6 6 6 7 7 6 6 4 5 6 4 7 7 4 3 5 5 5 5
Wind_Direction
213 158 131 130 119 102 295 187 168 323 21 6 354 298 284 177 156 131 130 151 153 154
127 100 97 79 82 33 329 302 31 118 130 68 292 276 148 135 159 149 156 122 135 106
128 130 121 91 85 288 275 207 206 237 75 69 136 135 152 157 148 126 103 109 79 58
100 87 74 53 326 293 278 81 114 94 109 116 150 128 120 96 95 96 78 69 85 80
79 71 36 324 311 303 61 55 40 56 32 103 106 105 98 91 99 94 72 59 56 37
100 90 50 342 63 79 78 81 97 103 137 144 158 116 112 114 96 86 96 90 75 353
49 50 56 78 79 81 78 43 80 74 87 75 71 64 69 80 78 61 57 59 48 332
63 75 73 55 77 90 97 108 103 76 52 63 57 40 47 43 45 40 14 359 5 8
87 85 89 91 98 46 65 67 53 53 77 66 64 56 52 49 39 19 13 348 328 306
88 84 80 100 98 54 38 33 62 78 91 81 73 58 49 38 27 355 342 339 329 327
113 99 91 84 103 110 59 50 73 75 84 87 61 53 38 29 23 7 358 347 358 18
106 109 93 90 77 55 53 56 54 56 103 91 61 42 34 25 20 24 354 344 356 97
93 97 99 90 72 61 66 68 86 74 101 125 104 49 43 41 49 23 350 341 351 340
87 92 91 74 63 75 75 81 87 92 89 81 89 57 36 18 39 19 349 348 344 323